Other Surface Observations
Issued by NWS

Home | Current Version | Previous Version | Text Only | Print | Product List | Glossary On
Versions: 1 2 3 4 5 6 7 8 9 10 11 12 13 14 15 16 17 18 19 20 21 22 23 24 25 26 27 28 29 30 31 32 33 34 35 36 37 38 39 40 41 42 43 44 45 46 47 48 49 50
251
SXUS52 KTAE 252118
OSOTAE
OSOTAE
North Florida/South Alabama/Southwest Georgia Weather Roundup
National Weather Service Tallahassee Florida
500 PM EDT SUN SEP 25 2016

Note: "fair" indicates few or no clouds below 12,000 feet with no
significant weather and/or obstructions to visibility.

!FLZ017-115-028-034-025-252200
...North Florida...

CITY           SKY/WX    TMP DP  RH WIND       PRES   REMARKS
TALLAHASSEE    PTSUNNY   82  71  69 E13       29.99R THUNDER
APALACHICOLA   SUNNY     88  76  67 S8        29.96F HX  99
PERRY          CLOUDY    80  70  72 CALM      29.97F
CROSS CITY     CLOUDY    73  72  94 N3        29.97F
JACKSONVILLE   PTSUNNY   83  72  69 E15       29.99S
$$

!FLZ112-006-005-002-011-252200
...Florida Panhandle...

CITY           SKY/WX    TMP DP  RH WIND       PRES   REMARKS
MARIANNA       PTSUNNY   90  68  48 CALM      29.94F THUNDER HX  94
BONIFAY        FAIR      84  67  56 N14G29    29.98R THUNDER
PANAMA CITY NW PTSUNNY   86  75  70 S9        29.95F HX  95
TYNDALL AFB    MOSUNNY   87  65  47 SE6       29.96S
TYND DRONE APT FAIR      86  64  46 SE3       29.96S
DE FUNIAK SPR  FAIR      89  66  45 CALM      29.97S HX  91
EGLIN AFB      PTSUNNY   88  73  61 S5        29.96F HX  95
DESTIN         MOSUNNY   89  77  67 VRB5      29.95F HX 101
HURLBURT       PTSUNNY   86  72  63 W6        29.96R HX  91
CRESTVIEW      LGT RAIN  81  74  79 SW5       29.99S
PENSACOLA      CLOUDY    83  70  64 N6        29.97S
$$

!ALZ063-066-252200
...South Alabama...

CITY           SKY/WX    TMP DP  RH WIND       PRES   REMARKS
DOTHAN         CLOUDY    82  71  69 S9        30.02S
OZARK CAIRNS   CLOUDY    73  72  94 S2        29.98S
FT RUCKER HELI CLOUDY    75  72  90 NE3       29.97F THUNDER
RUCKER HELI 3  NOT AVBL
RUCKER HELI 2  FAIR      76  71  85 CALM      29.98F
FLORALA APT    NOT AVBL
ANDALUSIA      TSTM      78  64  61 NE31G41   29.99R
TROY           PTSUNNY   82  70  66 CALM      29.99F
EUFALA         FAIR      89  69  51 NE3       29.97S HX  93
MOBILE         MOSUNNY   81  70  69 CALM      29.99R
$$

!GAZ120>161-252200
...Southwest and South Central Georgia...

CITY           SKY/WX    TMP DP  RH WIND       PRES   REMARKS
THOMASVILLE    FAIR      88  73  62 SE7       29.98F HX  96
BAINBRIDGE     LGT RAIN  77  72  83 SE9       29.97F
MOODY AFB      MOSUNNY   88  69  52 NE6       29.95F HX  92
VALDOSTA       MOSUNNY   89  70  53 E6        29.96F HX  94
MOULTRIE       CLOUDY    86  72  62 CALM      29.98F HX  92
BLAKELY        LGT RAIN  86  70  58 CALM      29.97F HX  90
ALBANY         MOSUNNY   91  67  44 E10       29.97F THUNDER HX  94
TIFTON         FAIR      87  69  56 CALM      29.98S HX  91
FITZGERALD     FAIR      89  74  60 E8        30.01F HX  98
CORDELE        LGT RAIN  89  70  53 NE8       29.99F HX  94
AMERICUS       FAIR      79  72  78 NW5       30.02F
HOMERVILLE     FAIR      91  72  52 E7        29.98F HX  98
$$

!GMZ750-755-770-775-252200
...Coastal and Buoy Obs...

STATION/POSITION TIME  TEMP    WIND        PRES    VSBY  WAVE
                       AIR SEA DIR/SP/G                  HT/PER
                 (UTC) (F)     (DEG/KT/KT) (MB)    (MI)  (FT/S)
KEATON BEACH     2100   83      CALM  /  2 1014.5F
CEDAR KEY        2100   86     340/  6/  8 1014.8F
C TOWER          2100   84     210/  3/  3 1015.2F
APALACHICOLA BUO 2050   86 89   30/  4/  4 1014.8F         0
PANAMA CITY BUOY 2050   85 89              1015.1F         1
MOBILE BUOY      2100   84 86  290/  2/  4 1014.3F
ORANGE BCH AL BU 2050   86 87  250/  4/  6 1014.6F         1
$$




USA.gov is the U.S. government's official web portal to all federal, state and local government web resources and services.